UFO 3 (USA 104)

导读

UFO 3(USA 104)是美国于1994年6月24日发射的军用侦察卫星,隶属于美国国家侦察局(NRO)的UFO系列卫星(美国电子侦察卫星家族)。它主要承担电子信号情报收集任务,旨在监听全球范围内的无线电通信、雷达信号等军事活动信息,为美国战略情报分析提供支持。该卫星运行于地球同步轨道附近,长期稳定执行空间情报侦察任务,是美国冷战后构建全球空间监视网络的重要组成部分,体现了美国在航天侦察领域的技术优势与战略布局。

基本信息
目录编号:
23132
目录名称:
UFO 3 (USA 104)
国际标识:
1994-035A
轨道中心:
EARTH
卫星名称:
UFO 3 (USA 104)
卫星全名:
--
卫星状态:
在轨 (已飞行11679 天)
发射日期:
1994-06-24 UTC
国别 :
美国 (US)
星等 :
--
轨道信息
数据来源 国际轨道数据 AOE轨道数据
星历时间 2026-06-15T03:54:11+0800
9小时前
查看轨道信息
2026-06-15T08:00:00+0800
5小时前
查看轨道信息
半长轴 42165.373km 42165.317km
偏心率 0.0001477 0.0001677
轨道倾角 12.366° 12.367°
近地点辐角 298.867° 303.654°
升交点赤经 5.726° 5.728°
平近点角 247.307° 304.138°
近地点 35781.008km 35780.108km
远地点 35793.464km 35794.252km
周期 1436.130分钟 1436.127分钟
每日圈数 1.002695 1.002697
详细信息
使用方式:
暂无
2D轨道图
3D轨道图
轨道高度分析图
轨道倾角分析图
轨道综合分析图
查看轨道综合分析图